Home   Weather   47°46'N, 10°29'E   Past weeks
Flag for Germany

Past Weather in 47°46'N, 10°29'E, Germany — Yesterday and Last 2 Weeks

Now
64 °F

Passing clouds.


Feels Like: 64 °F
Forecast: 73 / 51 °F
Wind: 8 mph from Northeast

Location: Altenstadt Airport

Current Time: Jul 15, 2019 at 9:36:46 pm

Latest Report: Jul 15, 2019 at 8:20 pm


Visibility: N/A

Pressure: 30.04 "Hg

Humidity: 60%

Dew Point: 50 °F

Location of 47°46'N, 10°29'ELocation

Past Weather in 47°46'N, 10°29'E — Graph

°F

47°46'N, 10°29'E Temperature Yesterday

Maximum temperature yesterday: 66 °F (at 2:20 pm)
Minimum temperature yesterday: 54 °F (at 1:20 am)
Average temperature yesterday: 59 °F

High & Low Weather Summary for the Past Weeks

 TemperatureHumidityPressure
High84 °F (Jul 1, 11:20 am)100% (Jul 2, 7:20 am)30.21 "Hg (Jul 2, 7:20 am)
Low46 °F (Jul 10, 5:20 am)30% (Jul 6, 12:20 pm)29.89 "Hg (Jul 7, 5:20 am)
Average62 °F73%30.06 "Hg
* Reported Jun 30 8:20 pm — Jul 15 8:20 pm, 47°46'N, 10°29'E. Weather by CustomWeather, © 2019

Note: Actual official high and low records may vary slightly from our data, if they occured in-between our weather recording intervals... More about our weather records

Advertising

47°46'N, 10°29'E Weather History for the Previous 24 Hours

Scroll right to see more
 ConditionsComfort  
Time TempWeatherWind HumidityBarometerVisibility
8:20 pm
Mon, Jul 15
64 °FPassing clouds.8 mph60%30.04 "HgN/A
7:20 pm64 °FPassing clouds.8 mph60%30.01 "HgN/A
6:20 pm68 °FPassing clouds.9 mph53%30.01 "HgN/A
5:20 pm68 °FPassing clouds.14 mph53%30.01 "HgN/A
4:20 pm68 °FPassing clouds.10 mph53%30.01 "HgN/A
3:20 pm68 °FPassing clouds.14 mph53%30.01 "HgN/A
2:20 pm66 °FPassing clouds.17 mph56%30.01 "HgN/A
1:20 pm64 °FScattered clouds.15 mph64%30.01 "HgN/A
12:20 pm64 °FScattered clouds.15 mph64%30.01 "HgN/A
11:20 am61 °FScattered clouds.10 mph68%30.01 "HgN/A
10:20 am59 °FScattered clouds.10 mph77%30.01 "HgN/A
9:20 am55 °FPartly sunny.10 mph88%30.01 "HgN/A
8:40 am55 °FPartly sunny.12 mph94%30.01 "Hg6 mi
8:07 am54 °FFog.8 mph100%30.01 "Hg3 mi
7:45 am54 °FFog.7 mph100%29.98 "Hg2 mi
7:40 am54 °FFog.7 mph100%29.98 "Hg1 mi
6:28 am52 °FFog.7 mph100%29.98 "Hg0 mi
6:10 am52 °FPartly sunny.5 mph100%29.98 "Hg1 mi
5:46 am50 °FFog.5 mph100%29.98 "Hg1 mi
5:20 am50 °FFog.2 mph100%29.98 "Hg3 mi
4:20 am48 °FCool.1 mph100%30.01 "HgN/A
3:20 am50 °FCool.1 mph100%29.98 "HgN/A
2:20 am52 °FCool.7 mph94%29.98 "HgN/A
1:20 am52 °FCool.2 mph94%30.01 "HgN/A
12:20 am54 °FCool.7 mph88%30.01 "HgN/A
11:20 pm
Sun, Jul 14
54 °FCool.7 mph88%30.01 "HgN/A
10:20 pm55 °FCool.6 mph82%30.01 "HgN/A
9:20 pm59 °FCool.9 mph72%30.01 "HgN/A
Weather by CustomWeather, © 2019

See weather overview